Flag for Tunisia Weather past 2 weeks in Tunis, Tunisia

Now
82 °F

Passing clouds.


Feels Like: 83 °F
Forecast: 73 / 98 °F
Wind: 7 mph from Southeast

Location: Tunis-Carthage

Current Time: Aug 31, 2015 at 9:40:54 PM

Latest Report: Aug 31, 2015 at 9:00 PM


Visibility: N/A

Pressure: 29.98 "Hg

Humidity: 51%

Dew point: 63 °F

Location of TunisLocation

Historic Weather in Tunis — Graph

°F

Tunis temperature yesterday

Maximum temperature yesterday: 93 °F (at 2:00 PM)
Minimum temperature yesterday: 73 °F (at 4:30 AM)
Average temperature yesterday: 84 °F

Past Weeks' High & Low Weather Summary

 TemperatureHumidityPressure
High100 °F (Aug 24, 1:00 PM)94% (Aug 22, 4:00 AM)30.15 "Hg (Aug 22, 4:00 AM)
Low66 °F (Aug 22, 6:00 AM)23% (Aug 31, 12:00 PM)29.80 "Hg (Aug 18, 3:30 PM)
Average83 °F62%30.00 "Hg
* Reported Aug 16 8:00 PM — Aug 31 8:30 PM, Tunis, Weather by CustomWeather, © 2015

Note: Actual official high and low records may vary slightly from our data, if they occured in-between our weather recording intervals... More about our weather records

Advertising

Tunis weather history for previous 24 hours

 ConditionsComfort  
Time TempWeatherWind HumidityBarometerVisibility
8:30 PM
Mon, Aug 31
84 °FPassing clouds.7 mph48%29.98 "HgN/A
8:00 PM84 °FPassing clouds.10 mph48%29.95 "HgN/A
7:30 PM86 °FPassing clouds.8 mph43%29.95 "HgN/A
7:00 PM88 °FPassing clouds.9 mph35%29.95 "HgN/A
6:30 PM90 °FPassing clouds.10 mph31%29.95 "HgN/A
6:00 PM90 °FPassing clouds.9 mph33%29.95 "HgN/A
5:30 PM91 °FPassing clouds.10 mph30%29.95 "HgN/A
5:00 PM91 °FPassing clouds.9 mph30%29.98 "HgN/A
4:30 PM91 °FPassing clouds.10 mph32%29.98 "HgN/A
4:00 PM91 °FPassing clouds.13 mph32%29.98 "HgN/A
3:30 PM91 °FPassing clouds.9 mph32%29.98 "HgN/A
3:00 PM93 °FPassing clouds.10 mph28%29.98 "HgN/A
2:30 PM93 °FPassing clouds.10 mph28%30.01 "HgN/A
2:00 PM93 °FPassing clouds.10 mph28%30.01 "HgN/A
1:30 PM93 °FPassing clouds.10 mph26%30.01 "HgN/A
1:00 PM93 °FPassing clouds.10 mph28%30.01 "HgN/A
12:30 PM93 °FPassing clouds.9 mph23%30.01 "HgN/A
12:00 PM93 °FPassing clouds.6 mph23%30.04 "HgN/A
11:30 AM91 °FPassing clouds.5 mph28%30.04 "HgN/A
11:00 AM90 °FPassing clouds.3 mph33%30.04 "HgN/A
10:30 AM88 °FPassing clouds.3 mph38%30.04 "HgN/A
10:00 AM88 °FPassing clouds.2 mph40%30.04 "HgN/A
9:30 AM86 °FPassing clouds.2 mph43%30.04 "HgN/A
9:00 AM84 °FPassing clouds.2 mph51%30.04 "HgN/A
8:30 AM82 °FPassing clouds.No wind58%30.04 "HgN/A
8:00 AM81 °FSunny.No wind58%30.04 "Hg10 mi
7:30 AM79 °FSunny.No wind54%30.04 "Hg10 mi
7:00 AM73 °FSunny.No wind78%30.04 "Hg10 mi
6:30 AM70 °FSunny.No wind83%30.04 "Hg10 mi
6:00 AM72 °FSunny.No wind78%30.04 "Hg10 mi
5:00 AM75 °FClear.3 mph78%30.04 "Hg10 mi
3:30 AM75 °FClear.7 mph78%30.04 "Hg10 mi
3:00 AM77 °FClear.6 mph74%30.07 "Hg10 mi
2:30 AM77 °FClear.6 mph65%30.07 "Hg10 mi
2:00 AM77 °FClear.9 mph65%30.07 "Hg10 mi
1:30 AM77 °FClear.6 mph54%30.07 "Hg10 mi
1:00 AM79 °FClear.5 mph51%30.07 "Hg10 mi
12:00 AM81 °FClear.8 mph66%30.09 "Hg10 mi
11:30 PM
Sun, Aug 30
79 °FClear.7 mph74%30.09 "Hg10 mi
10:30 PM81 °FPassing clouds.7 mph66%30.09 "HgN/A
10:00 PM81 °FPassing clouds.6 mph62%30.09 "HgN/A
9:30 PM82 °FClear.3 mph48%30.09 "Hg10 mi
9:00 PM84 °FPassing clouds.5 mph48%30.09 "HgN/A
Weather by CustomWeather, © 2015

See weather overviewHow to use our weather pages